Total_Precipitation_Accumulation
2.58 2.73 2.84 2.81 2.87 2.89 3.00 3.16 3.29 3.09 2.76 2.51 2.41 2.38 2.41 2.47 2.69 2.31 2.25 2.44 2.23 2.08 1.97 1.94 1.94 2.06 2.16 2.17 2.16 2.23 2.31 2.40 2.54 2.66 2.78 2.99 3.15 3.28
2.27 2.38 2.47 2.50 2.64 2.68 2.77 2.89 2.99 2.97 2.80 2.46 2.40 2.38 2.32 2.14 2.36 2.07 2.12 2.30 2.11 1.98 1.88 1.86 1.81 1.83 1.90 1.96 1.96 1.92 1.93 1.91 1.97 2.03 2.12 2.25 2.47 2.73
2.23 2.29 2.33 2.37 2.48 2.45 2.47 2.51 2.62 2.81 2.91 2.70 2.51 2.45 2.43 2.33 2.18 1.97 1.86 1.86 1.80 1.90 1.86 1.83 1.74 1.71 1.75 1.76 1.72 1.68 1.65 1.64 1.65 1.71 1.77 1.88 1.96 2.09
2.17 2.32 2.29 2.22 2.26 2.28 2.35 2.34 2.35 2.53 2.70 2.64 2.49 2.36 2.35 2.32 2.25 2.15 1.80 1.63 1.60 1.66 1.60 1.55 1.55 1.56 1.51 1.54 1.53 1.50 1.47 1.45 1.48 1.51 1.56 1.63 1.74 1.85
1.96 2.02 2.06 2.08 2.00 1.99 2.04 2.11 2.09 2.13 2.38 2.42 2.32 2.25 2.18 2.14 2.21 2.15 1.93 1.93 1.55 1.49 1.42 1.35 1.32 1.31 1.29 1.27 1.30 1.36 1.36 1.34 1.31 1.35 1.41 1.50 1.58 1.67
1.63 1.65 1.73 1.86 1.88 1.88 1.82 1.91 1.98 2.13 2.25 2.30 2.19 2.12 2.13 2.01 2.10 2.09 2.04 1.91 1.69 1.41 1.41 1.27 1.20 1.13 1.10 1.11 1.10 1.12 1.16 1.24 1.36 1.37 1.30 1.25 1.28 1.35
1.43 1.35 1.35 1.58 1.73 1.68 1.52 1.69 1.91 2.09 2.16 2.18 2.07 1.96 1.89 1.99 1.96 1.89 1.94 1.94 1.83 1.64 1.63 1.42 1.30 1.21 1.19 1.17 1.11 1.08 1.10 1.11 1.18 1.23 1.25 1.21 1.20 1.18
1.44 1.43 1.32 1.36 1.45 1.40 1.30 1.44 1.70 1.80 1.92 2.08 2.06 1.96 1.87 1.89 1.93 1.93 2.00 2.08 2.04 1.76 1.80 1.63 1.48 1.47 1.34 1.23 1.19 1.11 1.08 1.13 1.11 1.11 1.12 1.15 1.16 1.15
1.37 1.41 1.23 1.15 1.34 1.36 1.36 1.33 1.39 1.41 1.53 1.87 2.08 1.95 1.92 1.98 2.12 2.07 2.17 2.18 2.02 1.90 2.05 1.96 1.66 1.51 1.23 1.13 1.21 1.08 1.07 1.11 1.14 1.11 1.08 1.10 1.12 1.14
1.30 1.35 1.41 1.32 1.25 1.31 1.31 1.31 1.36 1.39 1.35 1.41 1.68 1.78 1.83 1.98 2.14 2.21 2.33 2.26 2.12 2.03 2.15 2.18 1.80 1.64 1.35 1.33 1.26 1.08 1.04 1.04 1.08 1.08 1.07 1.08 1.15 1.21
1.25 1.24 1.33 1.34 1.33 1.29 1.32 1.44 1.49 1.48 1.27 1.28 1.35 1.48 1.58 1.73 1.89 2.03 2.30 2.49 2.30 2.01 2.02 2.20 1.92 1.78 1.61 1.48 1.30 1.19 1.07 1.05 1.02 1.03 1.04 1.08 1.16 1.28
1.33 1.31 1.26 1.27 1.30 1.25 1.36 1.54 1.55 1.51 1.39 1.35 1.47 1.56 1.57 1.68 1.78 1.93 2.24 2.37 2.22 2.10 1.87 2.01 1.95 2.04 1.99 1.61 1.42 1.34 1.24 1.14 1.03 1.01 1.02 1.05 1.16 1.19
1.24 1.33 1.27 1.20 1.18 1.20 1.33 1.43 1.45 1.43 1.54 1.67 1.69 1.66 1.68 1.74 1.76 1.82 2.07 2.22 2.26 2.20 1.90 2.03 2.06 2.15 2.22 1.84 1.54 1.48 1.45 1.38 1.29 1.26 1.25 1.21 1.22 1.18
1.23 1.27 1.22 1.17 1.15 1.21 1.24 1.30 1.33 1.40 1.60 1.78 1.79 1.71 1.62 1.60 1.65 1.69 1.87 2.05 2.11 2.03 1.91 2.03 2.19 2.20 2.11 1.83 1.64 1.50 1.47 1.52 1.64 1.70 1.64 1.62 1.48 1.41
1.10 1.15 1.11 1.12 1.13 1.24 1.29 1.31 1.41 1.60 1.74 1.81 1.82 1.75 1.64 1.58 1.59 1.58 1.71 1.93 1.94 1.74 1.60 1.73 2.02 2.12 2.15 1.99 1.78 1.71 1.68 1.60 1.71 1.94 1.99 1.85 1.67 1.53
0.98 1.04 1.12 1.18 1.19 1.31 1.44 1.53 1.57 1.65 1.65 1.78 1.85 1.77 1.65 1.62 1.63 1.62 1.75 1.86 1.90 1.78 1.58 1.55 1.74 2.02 2.17 2.01 1.90 1.85 1.85 1.88 1.81 1.91 2.09 2.11 1.91 1.61
0.91 1.05 1.26 1.32 1.42 1.51 1.55 1.60 1.65 1.60 1.56 1.59 1.69 1.75 1.76 1.69 1.63 1.58 1.71 1.78 1.85 1.77 1.64 1.56 1.60 1.72 1.80 1.87 1.91 1.81 1.80 1.86 1.92 2.00 2.21 2.35 2.21 1.85
0.96 1.13 1.25 1.31 1.41 1.48 1.51 1.52 1.57 1.59 1.53 1.53 1.59 1.62 1.63 1.62 1.64 1.59 1.63 1.79 1.85 1.70 1.60 1.53 1.54 1.65 1.72 1.68 1.72 1.72 1.73 1.86 1.99 2.07 2.08 2.22 2.34 2.10
1.16 1.27 1.27 1.33 1.42 1.40 1.40 1.43 1.47 1.49 1.44 1.45 1.43 1.44 1.48 1.47 1.54 1.58 1.56 1.62 1.64 1.53 1.49 1.49 1.57 1.72 1.80 1.79 1.68 1.69 1.78 1.89 2.02 2.07 2.05 2.06 2.21 2.09
1.30 1.37 1.37 1.37 1.40 1.41 1.41 1.41 1.37 1.32 1.31 1.36 1.40 1.42 1.44 1.40 1.40 1.42 1.43 1.44 1.52 1.50 1.48 1.53 1.57 1.61 1.70 1.74 1.87 1.91 1.78 1.72 1.82 2.01 2.13 2.13 2.17 2.11
1.27 1.30 1.34 1.33 1.33 1.39 1.38 1.30 1.24 1.20 1.23 1.25 1.28 1.33 1.36 1.30 1.31 1.29 1.29 1.32 1.38 1.41 1.43 1.43 1.41 1.42 1.46 1.60 1.76 1.87 1.83 1.85 1.83 1.91 2.02 2.10 2.01 1.86
1.15 1.16 1.14 1.12 1.19 1.25 1.22 1.15 1.10 1.13 1.19 1.20 1.20 1.19 1.19 1.21 1.23 1.22 1.22 1.25 1.29 1.25 1.25 1.26 1.29 1.39 1.49 1.64 1.71 1.78 1.81 1.69 1.65 1.75 1.80 1.71 1.60 1.65
1.06 1.05 1.01 1.01 1.07 1.14 1.14 1.10 1.04 1.04 1.06 1.11 1.13 1.11 1.10 1.11 1.06 1.06 1.10 1.12 1.12 1.12 1.15 1.20 1.26 1.37 1.40 1.38 1.41 1.46 1.45 1.44 1.40 1.38 1.47 1.57 1.53 1.51